User: anonymous   Login
Location: Unspecified
(0.0000°N, 0.0000°E)
Time: 17:32:58
(UTC+01:00)
Language:

NATO 3D Rocket - Orbit

View from above orbital plane
View from above orbital plane
View from above satellite
View from above satellite

Ground track
Ground track

The orbit data is extracted from the following two-line orbital elements,

1 15392U 84115B   18019.41390002 +.00000209 +00000-0 +55502-4 0  9999
2 15392 021.4965 043.0760 1034430 352.2386 006.3093 12.45556554493204
Epoch (UTC): 19 January 2018 09:56:00
Eccentricity: 0.1034430
inclination: 21.4965°
perigee height: 670 km
apogee height: 2296 km
right ascension of ascending node: 43.0760°
argument of perigee: 352.2386°
revolutions per day: 12.45556554
mean anomaly at epoch: 6.3093°
orbit number at epoch: 49320

The dashed part of the orbit path shows where the satellite is in the earth's shadow,  

DLR